Change the Weather History Date:

Wednesday, March 6, 2013

  Actual Average Record
Temperature  
Mean Temperature 50 °F -  
Max Temperature 57 °F - - ()
Min Temperature 44 °F - - ()
Degree Days  
Heating Degree Days 14    
Moisture  
Dew Point 35 °F    
Average Humidity 54    
Maximum Humidity 71    
Minimum Humidity 46    
Precipitation  
Precipitation 0.00 in - - ()
Sea Level Pressure  
Sea Level Pressure 29.90 in    
Wind  
Wind Speed 15 mph ()    
Max Wind Speed 25 mph    
Max Gust Speed 38 mph    
Visibility 5.7 miles    
Events Rain    
T = Trace of Precipitation, MM = Missing Value Source: Averaged Metar Reports

Daily Weather History Graph

Daily Weather History Graph

Search for Another Location

Airport or City:

Trip Planner

Search our weather history database for the weather conditions in past years. The results will help you decide how hot, cold, wet, or windy it might be!

Date:

Astronomy

Mar. 06, 2013 Rise Set
Actual Time 6:20 AM CET 5:42 PM CET
Civil Twilight 5:50 AM CET 6:13 PM CET
Nautical Twilight 5:14 AM CET 6:48 PM CET
Astronomical Twilight 4:39 AM CET 7:24 PM CET
Moon 2:31 AM CET (3/6) 11:47 AM CET (3/6)
Length of Visible Light 12h 22m
Length of Day
11h 21m
Waning Crescent, 33% of the Moon is Illuminated
Mar 6
Waning Crescent
Mar 11
New
Mar 19
First Quarter
Mar 27
Full
Apr 3
Last Quarter

Hourly Weather History & Observations

Time (CET) Temp. Windchill Dew Point Humidity Pressure Visibility Wind Dir Wind Speed Gust Speed Precip Events Conditions
12:15 AM 46.4 °F 39.9 °F 26.6 °F 46% 30.06 in - SSE 15.7 mph - N/A   Clear
12:45 AM 46.4 °F 39.9 °F 26.6 °F 46% 30.04 in - SSE 15.7 mph - N/A   Clear
1:15 AM 46.4 °F 40.5 °F 26.6 °F 46% 30.04 in - SSE 13.4 mph - N/A   Clear
1:45 AM 44.6 °F 38.2 °F 28.4 °F 53% 30.04 in - SSE 13.4 mph - N/A   Clear
2:15 AM 44.6 °F 39.8 °F 28.4 °F 53% 30.04 in - SSE 8.9 mph - N/A   Clear
2:45 AM 44.6 °F 39.8 °F 28.4 °F 53% 30.01 in - SSE 8.9 mph - N/A   Clear
3:15 AM 44.6 °F 39.8 °F 28.4 °F 53% 30.01 in - SSE 8.9 mph - N/A   Clear
3:45 AM 44.6 °F 38.9 °F 28.4 °F 53% 30.01 in - SSE 11.2 mph - N/A   Clear
4:15 AM 44.6 °F 36.5 °F 28.4 °F 53% 29.98 in - SSE 20.1 mph - N/A   Clear
4:45 AM 46.4 °F 40.5 °F 30.2 °F 53% 29.98 in - SSE 13.4 mph - N/A   Clear
5:15 AM 44.6 °F 38.9 °F 30.2 °F 57% 29.95 in - SSE 11.2 mph - N/A   Clear
5:45 AM - - - N/A% - 6.2 mi SSE 13.4 mph - N/A   Overcast
6:15 AM 44.6 °F 37.6 °F 30.2 °F 57% 29.95 in - SSE 15.7 mph - N/A   Clear
6:45 AM 46.4 °F 39.9 °F 30.2 °F 53% 29.95 in - SSE 15.7 mph - N/A   Clear
7:00 AM 46.4 °F 39.9 °F 30.2 °F 53% 29.95 in - South 15.7 mph 26.8 mph N/A   Clear
7:15 AM 46.4 °F 39.9 °F 30.2 °F 53% 29.95 in - South 15.7 mph 26.8 mph N/A   Clear
7:45 AM 48.2 °F - 30.2 °F 50% 29.95 in - South 17.9 mph 29.1 mph N/A   Clear
8:15 AM 50.0 °F - 32.0 °F 50% 29.92 in - South 20.1 mph 31.3 mph N/A   Clear
8:45 AM - - - N/A% - 6.2 mi South 15.7 mph - N/A   Overcast
9:15 AM 53.6 °F - 35.6 °F 51% 29.92 in - South 22.4 mph - N/A   Clear
9:45 AM 55.4 °F - 35.6 °F 47% 29.92 in - South 22.4 mph - N/A   Clear
10:06 AM 55.4 °F - 35.6 °F 47% 29.92 in - South 24.6 mph 38.0 mph N/A   Clear
10:15 AM 55.4 °F - 35.6 °F 47% 29.92 in - South 24.6 mph 38.0 mph N/A   Clear
10:45 AM 53.6 °F - 35.6 °F 51% 29.92 in - South 22.4 mph - N/A   Clear
11:15 AM 55.4 °F - 35.6 °F 47% 29.92 in - South 20.1 mph - N/A   Clear
11:45 AM - - - N/A% - 6.2 mi South 17.9 mph - N/A   Overcast
12:15 PM 55.4 °F - 37.4 °F 51% 29.89 in - South 22.4 mph - N/A   Clear
12:45 PM 55.4 °F - 35.6 °F 47% 29.86 in - South 24.6 mph - N/A   Clear
1:15 PM 55.4 °F - 35.6 °F 47% 29.86 in - South 22.4 mph - N/A   Clear
1:45 PM 57.2 °F - 37.4 °F 48% 29.86 in - South 20.1 mph - N/A   Clear
2:15 PM 57.2 °F - 37.4 °F 48% 29.83 in - South 22.4 mph - N/A   Clear
2:45 PM - - - N/A% - 6.2 mi South 17.9 mph - N/A   Overcast
3:15 PM 55.4 °F - 39.2 °F 54% 29.83 in 6.2 mi South 20.1 mph - N/A   Mostly Cloudy
3:45 PM 57.2 °F - 39.2 °F 51% 29.80 in 6.2 mi South 24.6 mph - N/A   Mostly Cloudy
4:15 PM 57.2 °F - 39.2 °F 51% 29.80 in 6.2 mi South 20.1 mph - N/A   Mostly Cloudy
4:45 PM 55.4 °F - 39.2 °F 54% 29.80 in 6.2 mi South 20.1 mph 31.3 mph N/A   Mostly Cloudy
5:15 PM 55.4 °F - 39.2 °F 54% 29.80 in 6.2 mi SSE 20.1 mph - N/A   Mostly Cloudy
5:45 PM - - - N/A% - 6.2 mi South 17.9 mph - N/A   Overcast
6:15 PM 53.6 °F - 39.2 °F 58% 29.80 in - South 13.4 mph - N/A   Clear
6:45 PM 53.6 °F - 41.0 °F 62% 29.80 in - South 15.7 mph - N/A   Clear
7:15 PM 53.6 °F - 41.0 °F 62% 29.80 in - South 15.7 mph - N/A   Clear
7:45 PM 53.6 °F - 41.0 °F 62% 29.80 in - South 15.7 mph - N/A   Clear
8:15 PM 53.6 °F - 41.0 °F 62% 29.80 in - South 15.7 mph - N/A   Clear
8:45 PM - - - N/A% - 6.2 mi South 13.4 mph - N/A Rain Light Rain
9:15 PM 51.8 °F - 41.0 °F 67% 29.77 in - SSE 13.4 mph - N/A   Clear
9:45 PM 51.8 °F - 41.0 °F 67% 29.77 in - South 11.2 mph - N/A   Clear
10:15 PM 51.8 °F - 41.0 °F 67% 29.77 in - South 11.2 mph - N/A   Clear
10:45 PM 51.8 °F - 42.8 °F 71% 29.77 in - South 11.2 mph - N/A   Clear
11:15 PM 51.8 °F - 41.0 °F 67% 29.77 in - SSE 11.2 mph - N/A   Clear
11:45 PM - - - N/A% - 0.4 mi North - - N/A Rain Rain